Weather History for KVYS - January, 2013

Change the Weather History Date:

Wednesday, January 9, 2013

  Actual Average Record
Temperature  
Mean Temperature 38 °F -  
Max Temperature 48 °F 26 °F 57 °F (2002)
Min Temperature 28 °F 10 °F -11 °F (1970)
Degree Days  
Heating Degree Days 27    
Moisture  
Dew Point 29 °F    
Average Humidity 70    
Maximum Humidity 87    
Minimum Humidity 49    
Precipitation  
Precipitation 0.00 in - - ()
Sea Level Pressure  
Sea Level Pressure 30.30 in    
Wind  
Wind Speed 13 mph (West)    
Max Wind Speed 21 mph    
Max Gust Speed 28 mph    
Visibility 10 miles    
Events      
Averages and records for this station are not official NWS values.
T = Trace of Precipitation, MM = Missing Value Source: NWS Daily Summary

Daily Weather History Graph

Daily Weather History Graph

Search for Another Location

Airport or City:

Trip Planner

Search our weather history database for the weather conditions in past years. The results will help you decide how hot, cold, wet, or windy it might be!

Date:

Astronomy

Jan. 09, 2013 Rise Set
Actual Time 7:22 AM CST 4:45 PM CST
Civil Twilight 6:51 AM CST 5:16 PM CST
Nautical Twilight 6:16 AM CST 5:51 PM CST
Astronomical Twilight 5:43 AM CST 6:24 PM CST
Moon 5:01 AM CST (1/9) 2:47 PM CST (1/9)
Length of Visible Light 10h 25m
Length of Day
9h 23m
Waning Crescent, 6% of the Moon is Illuminated
Jan 9
Waning Crescent
Jan 11
New
Jan 18
First Quarter
Jan 26
Full
Feb 3
Last Quarter

Hourly Weather History & Observations

Time (CST) Temp. Windchill Dew Point Humidity Pressure Visibility Wind Dir Wind Speed Gust Speed Precip Events Conditions
12:15 AM 37.8 °F 29.8 °F 30.9 °F 76% 30.03 in 10.0 mi South 12.7 mph - N/A   Mostly Cloudy
12:35 AM 38.1 °F 29.8 °F 30.9 °F 75% 30.03 in 10.0 mi SSW 13.8 mph - N/A   Scattered Clouds
12:55 AM 39.6 °F 31.7 °F 30.9 °F 71% 30.04 in 10.0 mi SW 13.8 mph - N/A   Clear
1:15 AM 41.0 °F 32.5 °F 30.2 °F 65% 30.04 in 10.0 mi WSW 17.3 mph 27.6 mph N/A   Clear
1:35 AM 41.0 °F 32.2 °F 30.4 °F 66% 30.05 in 10.0 mi WSW 18.4 mph 27.6 mph N/A   Clear
1:55 AM 40.8 °F 31.7 °F 30.7 °F 67% 30.06 in 10.0 mi WSW 19.6 mph - N/A   Clear
2:15 AM 40.3 °F 31.0 °F 30.7 °F 69% 30.08 in 10.0 mi WSW 19.6 mph - N/A   Clear
2:35 AM 40.1 °F 31.3 °F 31.1 °F 70% 30.08 in 10.0 mi West 17.3 mph 26.5 mph N/A   Clear
2:55 AM 40.1 °F 30.5 °F 31.1 °F 70% 30.08 in 10.0 mi West 20.7 mph 25.3 mph N/A   Clear
3:15 AM 39.6 °F 30.0 °F 31.5 °F 73% 30.09 in 10.0 mi West 19.6 mph 24.2 mph N/A   Clear
3:35 AM 39.6 °F 30.6 °F 31.6 °F 73% 30.10 in 10.0 mi West 17.3 mph - N/A   Clear
3:55 AM 38.5 °F 29.2 °F 31.3 °F 75% 30.11 in 10.0 mi West 17.3 mph 23.0 mph N/A   Clear
4:15 AM 37.8 °F 28.6 °F 31.5 °F 78% 30.12 in 10.0 mi West 16.1 mph - N/A   Clear
4:35 AM 37.4 °F 28.2 °F 31.3 °F 79% 30.12 in 10.0 mi West 16.1 mph - N/A   Clear
4:55 AM 36.9 °F 27.5 °F 31.1 °F 80% 30.13 in 10.0 mi West 16.1 mph 23.0 mph N/A   Clear
5:15 AM 36.7 °F 26.9 °F 31.1 °F 80% 30.15 in 10.0 mi West 17.3 mph - N/A   Clear
5:35 AM 35.6 °F 26.2 °F 30.9 °F 83% 30.16 in 10.0 mi West 15.0 mph - N/A   Clear
5:55 AM 35.1 °F 25.5 °F 30.7 °F 84% 30.17 in 10.0 mi West 15.0 mph - N/A   Clear
6:15 AM 34.5 °F 25.3 °F 30.6 °F 85% 30.19 in 10.0 mi West 13.8 mph - N/A   Clear
6:35 AM 34.3 °F 25.0 °F 30.4 °F 85% 30.20 in 10.0 mi West 13.8 mph - N/A   Clear
6:55 AM 34.3 °F 25.5 °F 30.2 °F 85% 30.21 in 10.0 mi West 12.7 mph - N/A   Clear
7:15 AM 34.3 °F 26.5 °F 30.2 °F 85% 30.22 in 10.0 mi West 10.4 mph - N/A   Clear
7:35 AM 34.3 °F 27.0 °F 30.4 °F 85% 30.23 in 10.0 mi WSW 9.2 mph - N/A   Clear
7:55 AM 33.8 °F 27.0 °F 30.2 °F 87% 30.23 in 10.0 mi WSW 8.1 mph - N/A   Clear
8:15 AM 35.2 °F 28.1 °F 30.9 °F 84% 30.25 in 10.0 mi WSW 9.2 mph - N/A   Clear
8:35 AM 36.7 °F 29.9 °F 31.3 °F 81% 30.26 in 10.0 mi West 9.2 mph - N/A   Clear
8:55 AM 38.1 °F 31.7 °F 31.6 °F 77% 30.28 in 10.0 mi West 9.2 mph - N/A   Clear
9:15 AM 40.1 °F 32.7 °F 32.0 °F 73% 30.28 in 10.0 mi WSW 12.7 mph - N/A   Clear
9:35 AM 41.0 °F 35.2 °F 32.0 °F 70% 30.30 in 10.0 mi WSW 9.2 mph - N/A   Clear
9:55 AM 42.3 °F 36.3 °F 32.0 °F 67% 30.31 in 10.0 mi WSW 10.4 mph - N/A   Clear
10:15 AM 43.7 °F 37.3 °F 32.2 °F 64% 30.31 in 10.0 mi West 12.7 mph 19.6 mph N/A   Clear
10:55 AM 46.4 °F 40.4 °F 33.8 °F 62% 30.32 in 10.0 mi West 13.8 mph 20.7 mph N/A   Clear
11:15 AM 46.4 °F 39.5 °F 33.8 °F 62% 30.32 in 10.0 mi West 17.3 mph 24.2 mph N/A   Clear
11:35 AM 46.4 °F 40.4 °F 32.4 °F 58% 30.32 in 10.0 mi West 13.8 mph 25.3 mph N/A   Clear
11:55 AM 48.2 °F - 32.0 °F 54% 30.33 in 10.0 mi West 15.0 mph 24.2 mph N/A   Clear
12:15 PM 47.5 °F - 30.2 °F 51% 30.32 in 10.0 mi WNW 17.3 mph 21.9 mph N/A   Clear
12:35 PM 48.0 °F - 30.9 °F 52% 30.33 in 10.0 mi WNW 15.0 mph 23.0 mph N/A   Clear
12:55 PM 47.8 °F - 30.6 °F 51% 30.33 in 10.0 mi WNW 18.4 mph 26.5 mph N/A   Clear
1:15 PM 47.7 °F - 30.6 °F 52% 30.34 in 10.0 mi West 15.0 mph 19.6 mph N/A   Clear
1:35 PM 48.2 °F - 31.1 °F 52% 30.35 in 10.0 mi West 15.0 mph 21.9 mph N/A   Clear
1:55 PM 48.4 °F - 31.3 °F 52% 30.36 in 10.0 mi WNW 17.3 mph 20.7 mph N/A   Clear
2:15 PM 47.8 °F - 30.2 °F 50% 30.36 in 10.0 mi WNW 17.3 mph 21.9 mph N/A   Clear
2:35 PM 47.3 °F - 29.5 °F 50% 30.36 in 10.0 mi WNW 19.6 mph 25.3 mph N/A   Clear
2:55 PM 46.4 °F 39.5 °F 30.2 °F 53% 30.38 in 10.0 mi WNW 17.3 mph 26.5 mph N/A   Clear
3:15 PM 45.9 °F 39.7 °F 27.5 °F 49% 30.38 in 10.0 mi WNW 13.8 mph 23.0 mph N/A   Clear
3:35 PM 45.1 °F 39.5 °F 28.6 °F 52% 30.40 in 10.0 mi WNW 11.5 mph 20.7 mph N/A   Clear
3:55 PM 44.6 °F 38.8 °F 29.5 °F 55% 30.41 in 10.0 mi WNW 11.5 mph - N/A   Clear
4:15 PM 42.4 °F 37.0 °F 28.9 °F 59% 30.42 in 10.0 mi WNW 9.2 mph - N/A   Clear
4:35 PM 41.5 °F 35.4 °F 26.6 °F 55% 30.42 in 10.0 mi WNW 10.4 mph 17.3 mph N/A   Clear
4:55 PM 39.4 °F 31.1 °F 26.8 °F 61% 30.41 in 10.0 mi NW 15.0 mph - N/A   Clear
5:15 PM 37.4 °F 32.8 °F 26.6 °F 65% 30.43 in 10.0 mi NW 5.8 mph - N/A   Clear
5:35 PM 34.7 °F 26.9 °F 25.9 °F 70% 30.42 in 10.0 mi NNW 10.4 mph - N/A   Clear
5:55 PM 36.0 °F 31.1 °F 26.6 °F 69% 30.43 in 10.0 mi NNW 5.8 mph - N/A   Clear
6:15 PM 32.2 °F 28.9 °F 25.9 °F 78% 30.43 in 10.0 mi WNW 3.5 mph - N/A   Clear
6:35 PM 32.2 °F 27.7 °F 24.6 °F 74% 30.44 in 10.0 mi West 4.6 mph - N/A   Clear
6:55 PM 33.3 °F 27.9 °F 25.9 °F 74% 30.45 in 10.0 mi WSW 5.8 mph - N/A   Clear
7:15 PM 32.7 °F - 25.5 °F 75% 30.46 in 10.0 mi Calm Calm - N/A   Clear
7:35 PM 32.2 °F 28.9 °F 26.1 °F 78% 30.46 in 10.0 mi SW 3.5 mph - N/A   Clear
7:55 PM 33.3 °F 28.9 °F 26.1 °F 75% 30.47 in 10.0 mi SW 4.6 mph - N/A   Clear
8:15 PM 32.9 °F 27.5 °F 25.9 °F 75% 30.47 in 10.0 mi SSW 5.8 mph - N/A   Clear
8:35 PM 32.7 °F 29.6 °F 25.5 °F 75% 30.46 in 10.0 mi WSW 3.5 mph - N/A   Clear
8:55 PM 32.7 °F 29.6 °F 24.8 °F 73% 30.46 in 10.0 mi SSW 3.5 mph - N/A   Clear
9:15 PM 32.2 °F 28.9 °F 25.2 °F 75% 30.47 in 10.0 mi SW 3.5 mph - N/A   Clear
9:35 PM 29.8 °F - 23.5 °F 77% 30.46 in 10.0 mi Calm Calm - N/A   Clear
9:55 PM 29.8 °F 23.9 °F 23.9 °F 79% 30.47 in 10.0 mi WSW 5.8 mph - N/A   Clear
10:15 PM 28.9 °F - 23.9 °F 81% 30.47 in 10.0 mi Calm Calm - N/A   Clear
10:35 PM 30.4 °F - 24.6 °F 79% 30.49 in 10.0 mi Calm Calm - N/A   Clear
10:55 PM 28.9 °F - 23.7 °F 81% 30.49 in 10.0 mi Calm Calm - N/A   Clear
11:15 PM 30.7 °F - 25.2 °F 80% 30.49 in 10.0 mi Calm Calm - N/A   Clear
11:35 PM 31.6 °F - 25.3 °F 78% 30.50 in 10.0 mi Calm Calm - N/A   Clear
11:55 PM 30.9 °F - 24.8 °F 78% 30.49 in 10.0 mi Calm Calm - N/A   Clear